Terminal Aerodrome Forecast
Issued by NWS Upton, NY

Home | Current Version | Previous Version | Text Only | Print | Product List | Glossary On
Versions: 1 2 3 4 5 6 7 8 9 10 11 12 13 14 15 16 17 18 19 20 21 22 23 24 25 26 27 28 29 30 31 32
688
FTUS41 KOKX 260831 AAB
TAFISP
TAF AMD
KISP 260831Z 2609/2706 05010KT P6SM -RA BKN015 BKN020 OVC050
      TEMPO 2609/2612 SCT015
     FM261200 06010KT P6SM SCT015 BKN050
     FM261400 08013G20KT P6SM BKN020 OVC050
     FM262200 09014G22KT 5SM -RA BR OVC015
     FM270200 07009KT 3SM -DZ BR SCT004 OVC008=

USA.gov is the U.S. government's official web portal to all federal, state and local government web resources and services.